Hourly Data Report for September 27, 2018

ASHCROFT
BRITISH COLUMBIA
Current Station Operator: ECCC - MSC

50°42'30.005" N
121°16'53.001" W
327.00 m
1160515
71681
VAS

Download Data

Hourly Data (September 2018)
Hourly Data Report for September 27, 2018
TIME
LST
Temp Definition
°C
Dew Point Definition
°C
Rel Hum Definition
%
Precip. Amount Definition
mm

Wind Dir Definition
10's deg

Wind Spd Definition
km/h
Visibility Definition
km
Stn Press Definition
kPa
Hmdx Definition


Wind Chill Definition


Weather Definition


00:00 13.1 9.0 76 0.0 19 2   98.29     LegendNANA
01:00 12.9 8.9 77 0.0 19 3   98.30     LegendNANA
02:00 12.6 8.5 76 0.0 0 1   98.29     LegendNANA
03:00 12.8 8.4 75 0.0   0   98.30     LegendNANA
04:00 12.7 8.6 76 0.0 21 4   98.28     LegendNANA
05:00 12.7 8.7 77 0.0   0   98.29     LegendNANA
06:00 12.6 8.5 76 0.0 7 2   98.30     LegendNANA
07:00 12.9 9.2 78 0.0 25 1   98.31     LegendNANA
08:00 13.5 8.6 72 0.0 23 4   98.34     LegendNANA
09:00 14.0 8.1 68 0.0 26 2   98.36     LegendNANA
10:00 15.1 8.5 65 0.0 23 7   98.36     LegendNANA
11:00 16.4 9.1 62 0.0 22 5   98.32     LegendNANA
12:00 18.8 8.6 52 0.0 21 4   98.25     LegendNANA
13:00 19.6 8.5 49 0.0 29 5   98.19     LegendNANA
14:00 19.5 8.5 49 0.0 22 3   98.16     LegendNANA
15:00 19.5 7.0 44 0.0 35 10   98.17     LegendNANA
16:00 18.9 6.9 45 0.0 35 11   98.18     LegendNANA
17:00 19.0 6.3 43 0.0 36 9   98.17     LegendNANA
18:00 18.0 6.5 47 0.0 2 4   98.16     LegendNANA
19:00 16.3 6.5 52 0.0 6 2   98.20     LegendNANA
20:00 15.8 5.8 51 0.0 6 2   98.26     LegendNANA
21:00 13.2 7.2 67 0.0 4 3   98.27     LegendNANA
22:00 15.1 4.9 50 0.0 7 9   98.29     LegendNANA
23:00 13.5 5.0 56 0.0 5 4   98.28     LegendNANA

Notes on Data Quality.

Legend

  • E = Estimated
  • M = Missing
  • NA = Not Available*
  • [empty] = Indicates an unobserved value
Date modified: